Albany, NY

4:12 AM EST on November 13, 2019 (GMT -0500)
Albany International

Weather History for KALB - September, 2019

Change the Weather History Date:

Sunday, September 22, 2019

  Actual Average Record
Temperature  
Mean Temperature 69 °F 59 °F  
Max Temperature 87 °F 70 °F 95 °F (1895)
Min Temperature 51 °F 49 °F 31 °F (1962)
Degree Days  
Heating Degree Days 0 7  
Month to date heating degree days 52 77  
Since 1 July heating degree days 54 100  
Cooling Degree Days 4 1  
Month to date cooling degree days 30 46  
Year to date cooling degree days 753 589  
Growing Degree Days 19 (Base 50)    
Moisture  
Dew Point 57 °F    
Average Humidity 68    
Maximum Humidity 93    
Minimum Humidity 43    
Precipitation  
Precipitation 0.00 in 0.12 in 2.15 in (1882)
Month to date precipitation 1.80 2.35  
Year to date precipitation 30.78 28.50  
Sea Level Pressure  
Sea Level Pressure 30.07 in    
Wind  
Wind Speed 6 mph (South)    
Max Wind Speed 13 mph    
Max Gust Speed 18 mph    
Visibility 10 miles    
Events Fog    
T = Trace of Precipitation, MM = Missing Value Source: NWS Daily Summary

Daily Weather History Graph

Daily Weather History Graph

Search for Another Location

Airport or City:

Astronomy

Sep. 22, 2019 Rise Set
Actual Time 6:42 AM EDT 6:52 PM EDT
Civil Twilight 6:14 AM EDT 7:21 PM EDT
Nautical Twilight 5:40 AM EDT 7:54 PM EDT
Astronomical Twilight 5:07 AM EDT 8:27 PM EDT
Moon No Moon Rise 2:54 PM EDT (9/22)
Length of Visible Light 13h 07m
Length of Day
12h 10m
Last Quarter, 44% of the Moon is Illuminated
Sep 22
Last Quarter
Sep 28
New
Oct 5
First Quarter
Oct 13
Full
Oct 21
Last Quarter

Hourly Weather History & Observations

Time (EDT) Temp. Heat Index Dew Point Humidity Pressure Visibility Wind Dir Wind Speed Gust Speed Precip Events Conditions
12:51 AM 57.9 °F - 53.1 °F 84% 30.17 in 10.0 mi Calm Calm - N/A   Clear
1:51 AM 55.9 °F - 52.0 °F 87% 30.17 in 10.0 mi Calm Calm - N/A   Clear
2:51 AM 54.0 °F - 51.1 °F 90% 30.16 in 10.0 mi Calm Calm - N/A   Clear
3:51 AM 53.1 °F - 50.0 °F 89% 30.16 in 10.0 mi Calm Calm - N/A Fog Shallow Fog
4:51 AM 52.0 °F - 48.9 °F 89% 30.17 in 10.0 mi Calm Calm - N/A Fog Shallow Fog
5:51 AM 53.1 °F - 48.9 °F 86% 30.17 in 10.0 mi Calm Calm - N/A Fog Shallow Fog
6:51 AM 52.0 °F - 48.0 °F 86% 30.17 in 10.0 mi Calm Calm - N/A Fog Patches of Fog
7:51 AM 55.9 °F - 52.0 °F 87% 30.16 in 10.0 mi Calm Calm - N/A Fog Partly Cloudy
8:51 AM 61.0 °F - 54.0 °F 78% 30.16 in 10.0 mi SSW 4.6 mph - N/A   Partly Cloudy
9:51 AM 66.9 °F - 54.0 °F 63% 30.14 in 10.0 mi South 10.4 mph - N/A   Mostly Cloudy
10:51 AM 71.1 °F - 55.9 °F 59% 30.13 in 10.0 mi SE 6.9 mph - N/A   Mostly Cloudy
11:51 AM 75.9 °F - 55.9 °F 50% 30.11 in 10.0 mi SSW 8.1 mph - N/A   Mostly Cloudy
12:51 PM 81.0 °F 81.1 °F 57.9 °F 45% 30.08 in 10.0 mi South 6.9 mph - N/A   Mostly Cloudy
1:51 PM 82.9 °F 82.8 °F 59.0 °F 44% 30.05 in 10.0 mi South 8.1 mph - N/A   Mostly Cloudy
2:51 PM 86.0 °F 86.3 °F 62.1 °F 44% 30.02 in 10.0 mi South 8.1 mph - N/A   Mostly Cloudy
3:51 PM 87.1 °F 87.5 °F 62.1 °F 43% 29.99 in 10.0 mi South 10.4 mph - N/A   Scattered Clouds
4:51 PM 86.0 °F 86.3 °F 62.1 °F 44% 29.97 in 10.0 mi South 10.4 mph - N/A   Scattered Clouds
5:51 PM 84.9 °F 85.9 °F 63.0 °F 48% 29.97 in 10.0 mi South 8.1 mph - N/A   Scattered Clouds
6:51 PM 82.9 °F 84.4 °F 64.0 °F 53% 29.96 in 10.0 mi South 9.2 mph - N/A   Scattered Clouds
7:51 PM 80.1 °F 81.7 °F 64.0 °F 58% 29.96 in 10.0 mi South 6.9 mph - N/A   Scattered Clouds
8:51 PM 78.1 °F - 64.0 °F 62% 29.96 in 10.0 mi South 6.9 mph - N/A   Scattered Clouds
9:51 PM 75.9 °F - 64.0 °F 67% 29.95 in 10.0 mi South 6.9 mph - N/A   Scattered Clouds
10:51 PM 75.0 °F - 64.0 °F 69% 29.94 in 10.0 mi South 8.1 mph - N/A   Scattered Clouds
11:51 PM 73.9 °F - 64.0 °F 71% 29.93 in 10.0 mi South 9.2 mph - N/A   Scattered Clouds